Hourly Data Report for October 03, 2017

All times are specified in Local Standard Time (LST). Add 1 hour to adjust for Daylight Saving Time where and when it is observed.

LILLOOET
BRITISH COLUMBIA

50°41'01.420" N
121°56'02.945" W
239.50 m
1114619
71999
WKF

Download Data

Hourly Data (October 2017)
Hourly Data Report for October 3, 2017
Temp Definition
°C
Dew Point Temp Definition
°C
Rel Hum Definition
%
Wind Dir Definition
10's deg

Wind Spd Definition
km/h
Visibility Definition
km
Stn Press Definition
kPa
Hmdx Definition


Wind Chill Definition


Weather Definition


TIME
00:00 6.3 -0.2 63 LegendMM LegendMM   100.12     LegendNANA
01:00 5.6 -0.3 66 LegendMM LegendMM   100.18     LegendNANA
02:00 5.2 -0.6 66 LegendMM LegendMM   100.20     LegendNANA
03:00 5.7 -1.0 62 LegendMM LegendMM   100.20     LegendNANA
04:00 4.9 -0.9 66 LegendMM LegendMM   100.17     LegendNANA
05:00 3.6 -1.2 71 LegendMM LegendMM   100.18     LegendNANA
06:00 2.7 -1.6 73 LegendMM LegendMM   100.20     LegendNANA
07:00 2.7 -1.4 74 LegendMM LegendMM   100.25     LegendNANA
08:00 6.4 -1.3 58 LegendMM LegendMM   100.30     LegendNANA
09:00 8.8 -1.8 48 LegendMM LegendMM   100.27     LegendNANA
10:00 11.4 -2.8 37 LegendMM LegendMM   100.20     LegendNANA
11:00 13.1 -3.8 31 LegendMM LegendMM   100.12     LegendNANA
12:00 14.6 -3.6 28 LegendMM LegendMM   100.01     LegendNANA
13:00 16.0 -4.2 25 LegendMM LegendMM   99.91     LegendNANA
14:00 17.1 -4.8 22 LegendMM LegendMM   99.80     LegendNANA
15:00 17.9 -5.9 19 LegendMM LegendMM   99.70     LegendNANA
16:00 15.8 -2.3 29 LegendMM LegendMM   99.66     LegendNANA
17:00 11.5 -1.6 40 LegendMM LegendMM   99.67     LegendNANA
18:00 9.8 -0.3 49 LegendMM LegendMM   99.69     LegendNANA
19:00 8.2 -1.3 51 LegendMM LegendMM   99.73     LegendNANA
20:00 7.7 -0.1 58 LegendMM LegendMM   99.76     LegendNANA
21:00 6.7 -0.4 60 LegendMM LegendMM   99.82     LegendNANA
22:00 6.1 -1.8 57 LegendMM LegendMM   99.84     LegendNANA
23:00 5.3 -2.0 59 LegendMM LegendMM   99.86     LegendNANA

Notes on Data Quality.

Legend

  • E = Estimated
  • M = Missing
  • NA = Not Available
  • ‡ = Partner data that is not subject to review by the National Climate Archives
Date modified: